Location: Roussillon
(43.9008°N, 5.2947°E)
Time: 20:32:15
(UTC+00:00)

STARLINK-1299 - Pass Details

Date: 07 June 2020
Orbit: 568 x 571 km, 53.0° (Epoch: 09 July)

Event Time Altitude Azimuth Distance (km) Brightness Sun altitude
Exits shadow 01:24:21 47° 219° (SW) 754 3.8 -19.0°
Maximum altitude 01:25:29 78° 144° (SE) 586 3.6 -18.9°
Drops below altitude 10° 01:29:45 10° 57° (ENE) 1,873 7.2 -18.5°
Sets 01:32:00 0° 57° (ENE) 2,774 8.3 -18.4°
